Weather History for Toledo, OH

Change the Weather History Date:

Sunday, December 22, 2013

  Actual Average Record
Temperature  
Mean Temperature 37 °F 28 °F  
Max Temperature 41 °F 34 °F 61 °F (1949)
Min Temperature 33 °F 21 °F -19 °F (1989)
Degree Days  
Heating Degree Days 28 37  
Month to date heating degree days 803 749  
Since 1 July heating degree days 2151 1982  
Cooling Degree Days 0 0  
Month to date cooling degree days 0 0  
Year to date cooling degree days 793 793  
Moisture  
Dew Point 34 °F    
Average Humidity 91    
Maximum Humidity 100    
Minimum Humidity 82    
Precipitation  
Precipitation 0.31 in 0.09 in 0.74 in (1981)
Month to date precipitation 2.97 1.93  
Year to date precipitation 36.73 33.49  
Snow  
Snow 0.00 in 0.30 in - ()
Month to date snowfall 9.5 4.8  
Since 1 July snowfall 10.0 6.9  
Snow Depth 0.00 in    
Sea Level Pressure  
Sea Level Pressure 29.74 in    
Wind  
Wind Speed 13 mph (SW)    
Max Wind Speed 29 mph    
Max Gust Speed 38 mph    
Visibility 8 miles    
Events Rain    
T = Trace of Precipitation, MM = Missing Value Source: NWS Daily Summary

Daily Weather History Graph

Daily Weather History Graph

Search for Another Location

Airport:

Trip Planner

Search our weather history database for the weather conditions in past years. The results will help you decide how hot, cold, wet, or windy it might be!

Date:

Astronomy

Dec. 22, 2013 Rise Set
Actual Time 7:59 AM EST 5:08 PM EST
Civil Twilight 7:27 AM EST 5:40 PM EST
Nautical Twilight 6:52 AM EST 6:15 PM EST
Astronomical Twilight 6:18 AM EST 6:49 PM EST
Moon 10:24 PM EST (12/22) 10:51 AM EST (12/22)
Length of Visible Light 10h 12m
Length of Day
9h 09m
Waning Gibbous, 77% of the Moon is Illuminated
Dec 22
Waning Gibbous
Dec 25
Last Quarter
Jan 1
New
Jan 7
First Quarter
Jan 15
Full

Hourly Weather History & Observations

Time (EST) Temp. Windchill Dew Point Humidity Pressure Visibility Wind Dir Wind Speed Gust Speed Precip Events Conditions
12:52 AM 34.0 °F 26.6 °F 33.1 °F 96% 29.61 in 10.0 mi East 9.2 mph - 0.13 in Rain Light Rain
1:52 AM 35.1 °F 29.3 °F 34.0 °F 96% 29.64 in 10.0 mi ENE 6.9 mph - 0.05 in Rain Light Rain
2:52 AM 34.0 °F 24.6 °F 33.1 °F 96% 29.62 in 10.0 mi NE 13.8 mph 20.7 mph 0.00 in   Overcast
3:50 AM 33.8 °F 25.3 °F 32.0 °F 93% 29.55 in 10.0 mi ENE 11.5 mph - N/A   Overcast
3:52 AM 33.1 °F 24.4 °F 32.0 °F 96% 29.58 in 10.0 mi East 11.5 mph - N/A   Overcast
4:52 AM 33.1 °F 25.5 °F 33.1 °F 100% 29.54 in 3.0 mi NE 9.2 mph - 0.04 in Rain Rain
5:50 AM 33.8 °F 27.7 °F 33.8 °F 100% 29.53 in 5.0 mi NE 6.9 mph - 0.08 in Rain Light Rain
5:52 AM 34.0 °F 26.0 °F 33.1 °F 96% 29.53 in 7.0 mi ENE 10.4 mph - 0.08 in Rain Light Rain
6:13 AM 33.8 °F 29.6 °F 33.8 °F 100% 29.52 in 7.0 mi East 4.6 mph - 0.00 in Rain Light Rain
6:22 AM 33.8 °F - 33.8 °F 100% 29.54 in 7.0 mi Calm Calm - 0.00 in   Overcast
6:52 AM 34.0 °F - 34.0 °F 100% 29.57 in 7.0 mi Calm Calm - 0.01 in   Overcast
7:37 AM 33.8 °F - 33.8 °F 100% 29.58 in 4.0 mi Calm Calm - N/A   Overcast
7:52 AM 34.0 °F 31.0 °F 34.0 °F 100% 29.60 in 1.2 mi SSE 3.5 mph - N/A   Overcast
8:52 AM 36.0 °F 31.1 °F 36.0 °F 100% 29.64 in 1.0 mi SW 5.8 mph - 0.01 in   Overcast
9:52 AM 37.9 °F 30.0 °F 37.9 °F 100% 29.68 in 3.0 mi SW 12.7 mph 17.3 mph N/A   Overcast
10:05 AM 39.2 °F 30.8 °F 39.2 °F 100% 29.66 in 10.0 mi SW 15.0 mph - N/A   Overcast
10:29 AM 39.2 °F 27.8 °F 37.4 °F 93% 29.68 in 10.0 mi SW 27.6 mph 36.8 mph N/A   Overcast
10:52 AM 39.9 °F 29.2 °F 37.0 °F 89% 29.72 in 10.0 mi WSW 25.3 mph 36.8 mph N/A   Overcast
11:52 AM 41.0 °F 31.1 °F 37.0 °F 86% 29.73 in 10.0 mi WSW 23.0 mph 35.7 mph N/A   Overcast
12:52 PM 39.9 °F 29.2 °F 36.0 °F 86% 29.76 in 10.0 mi SW 25.3 mph 34.5 mph N/A   Overcast
1:52 PM 39.9 °F 31.1 °F 35.1 °F 83% 29.78 in 10.0 mi WSW 17.3 mph 26.5 mph N/A   Overcast
2:52 PM 39.0 °F 28.8 °F 35.1 °F 86% 29.81 in 10.0 mi WSW 21.9 mph 29.9 mph N/A   Overcast
3:52 PM 37.9 °F 28.9 °F 34.0 °F 86% 29.85 in 10.0 mi WSW 16.1 mph - N/A   Overcast
4:52 PM 37.0 °F 28.1 °F 35.1 °F 93% 29.89 in 8.0 mi WSW 15.0 mph - N/A   Overcast
5:09 PM 37.4 °F 28.9 °F 35.6 °F 93% 29.88 in 9.0 mi WSW 13.8 mph 18.4 mph 0.00 in Rain Light Rain
5:42 PM 37.4 °F 28.9 °F 33.8 °F 87% 29.89 in 10.0 mi WSW 13.8 mph - 0.01 in Rain Light Rain
5:52 PM 37.0 °F 28.5 °F 34.0 °F 89% 29.91 in 10.0 mi WSW 13.8 mph - 0.01 in   Overcast
6:39 PM 35.6 °F 27.5 °F 33.8 °F 93% 29.91 in 10.0 mi WSW 11.5 mph - N/A   Overcast
6:52 PM 36.0 °F 26.7 °F 33.1 °F 89% 29.94 in 10.0 mi WSW 15.0 mph - N/A   Overcast
7:24 PM 35.6 °F 28.0 °F 33.8 °F 93% 29.91 in 10.0 mi West 10.4 mph - N/A   Overcast
7:52 PM 36.0 °F 29.0 °F 33.1 °F 89% 29.95 in 10.0 mi SW 9.2 mph - N/A   Overcast
8:52 PM 36.0 °F 29.0 °F 32.0 °F 86% 29.96 in 10.0 mi SW 9.2 mph - N/A   Overcast
9:19 PM 35.6 °F 28.6 °F 30.2 °F 81% 29.94 in 10.0 mi SW 9.2 mph 18.4 mph N/A   Overcast
9:52 PM 35.1 °F 27.4 °F 32.0 °F 89% 29.96 in 10.0 mi WSW 10.4 mph - N/A   Overcast
10:52 PM 35.1 °F 27.4 °F 30.9 °F 85% 29.97 in 10.0 mi West 10.4 mph - N/A   Overcast
11:52 PM 34.0 °F 27.2 °F 32.0 °F 92% 30.00 in 10.0 mi WSW 8.1 mph - N/A   Overcast